| time (UTC) | temp F | wind direction | speed knots | gust knots | rain 1hr in | rain 24hr in | rain mn in | humidity % | barometer mb |
| 20260506134519 | 55 | 86 | 2.6 | 7.0 | 0.00 | 0.00 | 0.00 | 70 | 1013.3 |
| 20260506134008 | 54 | 105 | 0.9 | 9.6 | 0.00 | 0.00 | 0.00 | 72 | 1013.2 |
| 20260506133507 | 54 | 91 | 2.6 | 9.6 | 0.00 | 0.00 | 0.00 | 70 | 1013.3 |
| 20260506133023 | 55 | 78 | 3.5 | 8.7 | 0.00 | 0.00 | 0.00 | 68 | 1013.3 |
| 20260506132513 | 55 | 40 | 3.5 | 8.7 | 0.00 | 0.00 | 0.00 | 68 | 1013.2 |
| 20260506132014 | 56 | 113 | 2.6 | 8.7 | 0.00 | 0.00 | 0.00 | 68 | 1013.2 |
| 20260506131524 | 56 | 72 | 2.6 | 8.7 | 0.00 | 0.00 | 0.00 | 69 | 1013.1 |
| 20260506131008 | 56 | 53 | 3.5 | 8.7 | 0.00 | 0.00 | 0.00 | 67 | 1013.2 |
| 20260506130515 | 56 | 58 | 2.6 | 7.8 | 0.00 | 0.00 | 0.00 | 68 | 1013.1 |
| 20260506130030 | 57 | 307 | 2.6 | 7.8 | 0.00 | 0.00 | 0.00 | 67 | 1013.2 |
| 20260506125505 | 57 | 88 | 2.6 | 8.7 | 0.00 | 0.00 | 0.00 | 68 | 1013.1 |
| 20260506125003 | 57 | 48 | 1.7 | 8.7 | 0.00 | 0.00 | 0.00 | 66 | 1013.0 |
| 20260506124517 | 57 | 348 | 1.7 | 7.8 | 0.00 | 0.00 | 0.00 | 65 | 1013.1 |
| 20260506124004 | 57 | 90 | 1.7 | 7.8 | 0.00 | 0.00 | 0.00 | 66 | 1012.9 |
| 20260506123505 | 57 | 36 | 2.6 | 7.8 | 0.00 | 0.00 | 0.00 | 65 | 1013.0 |
| 20260506123022 | 57 | 198 | 2.6 | 8.7 | 0.00 | 0.00 | 0.00 | 66 | 1012.9 |
| 20260506122508 | 56 | 52 | 1.7 | 8.7 | 0.00 | 0.00 | 0.00 | 69 | 1012.9 |
| 20260506122012 | 56 | 76 | 2.6 | 6.1 | 0.00 | 0.00 | 0.00 | 68 | 1012.9 |
| 20260506121527 | 56 | 61 | 1.7 | 7.8 | 0.00 | 0.00 | 0.00 | 67 | 1012.8 |
| 20260506121010 | 56 | 333 | 1.7 | 8.7 | 0.00 | 0.00 | 0.00 | 68 | 1012.8 |
| 20260506120515 | 56 | 79 | 2.6 | 8.7 | 0.00 | 0.00 | 0.00 | 68 | 1012.8 |
| 20260506120022 | 56 | 93 | 1.7 | 8.7 | 0.00 | 0.00 | 0.00 | 67 | 1012.8 |
| 20260506115508 | 56 | 46 | 1.7 | 8.7 | 0.00 | 0.00 | 0.00 | 68 | 1012.8 |
| 20260506115013 | 56 | 105 | 1.7 | 7.0 | 0.00 | 0.00 | 0.00 | 67 | 1012.8 |
| 20260506114521 | 56 | 55 | 1.7 | 7.0 | 0.00 | 0.00 | 0.00 | 66 | 1012.8 |
| 20260506114007 | 56 | 57 | 1.7 | 7.0 | 0.00 | 0.00 | 0.00 | 68 | 1012.8 |
| 20260506113504 | 56 | 325 | 1.7 | 6.1 | 0.00 | 0.00 | 0.00 | 68 | 1012.8 |
| 20260506113020 | 55 | 100 | 0.9 | 7.8 | 0.00 | 0.00 | 0.00 | 69 | 1012.8 |
| 20260506112509 | 56 | 64 | 2.6 | 7.8 | 0.00 | 0.00 | 0.00 | 68 | 1012.8 |
| 20260506112011 | 56 | 254 | 0.9 | 7.0 | 0.00 | 0.00 | 0.00 | 68 | 1012.8 |
| 20260506111526 | 56 | 323 | 1.7 | 6.1 | 0.00 | 0.00 | 0.00 | 69 | 1012.8 |
| 20260506111005 | 56 | 89 | 2.6 | 5.2 | 0.00 | 0.00 | 0.00 | 69 | 1012.8 |
| 20260506110502 | 56 | 31 | 1.7 | 5.2 | 0.00 | 0.00 | 0.00 | 69 | 1012.8 |
| 20260506110007 | 56 | 44 | 1.7 | 5.2 | 0.00 | 0.00 | 0.00 | 70 | 1012.8 |
| 20260506105503 | 55 | 49 | 1.7 | 5.2 | 0.00 | 0.00 | 0.00 | 71 | 1012.7 |
| 20260506105008 | 55 | 45 | 1.7 | 7.0 | 0.00 | 0.00 | 0.00 | 71 | 1012.7 |
| 20260506104506 | 55 | 72 | 2.6 | 7.0 | 0.00 | 0.00 | 0.00 | 71 | 1012.7 |
| 20260506104003 | 55 | 111 | 1.7 | 7.8 | 0.00 | 0.00 | 0.00 | 71 | 1012.7 |
| 20260506103506 | 55 | 65 | 1.7 | 7.8 | 0.00 | 0.00 | 0.00 | 71 | 1012.7 |
| 20260506103003 | 55 | 95 | 1.7 | 6.1 | 0.00 | 0.00 | 0.00 | 71 | 1012.7 |
| 20260506102503 | 55 | 106 | 2.6 | 7.0 | 0.00 | 0.00 | 0.00 | 72 | 1012.7 |
| 20260506102006 | 55 | 64 | 1.7 | 7.0 | 0.00 | 0.00 | 0.00 | 70 | 1012.7 |
| 20260506101537 | 55 | 76 | 2.6 | 7.0 | 0.00 | 0.00 | 0.00 | 72 | 1012.6 |
| 20260506101006 | 54 | 94 | 1.7 | 6.1 | 0.00 | 0.00 | 0.00 | 74 | 1012.6 |
| 20260506100502 | 53 | 132 | 0.9 | 4.3 | 0.00 | 0.00 | 0.00 | 78 | 1012.5 |
| 20260506100003 | 53 | 84 | 0.9 | 4.3 | 0.00 | 0.00 | 0.00 | 78 | 1012.6 |
| 20260506095502 | 53 | 109 | 2.6 | 4.3 | 0.00 | 0.00 | 0.00 | 78 | 1012.5 |
| 20260506095002 | 52 | 26 | 0.0 | 3.5 | 0.00 | 0.00 | 0.00 | 81 | 1012.5 |
| 20260506094516 | 52 | 27 | 0.9 | 3.5 | 0.00 | 0.00 | 0.00 | 82 | 1012.4 |
| 20260506094004 | 52 | 46 | 0.9 | 3.5 | 0.00 | 0.00 | 0.00 | 83 | 1012.5 |
| 20260506093505 | 52 | 51 | 0.9 | 3.5 | 0.00 | 0.00 | 0.00 | 84 | 1012.4 |
| 20260506093014 | 52 | 80 | 0.9 | 3.5 | 0.00 | 0.00 | 0.00 | 83 | 1012.4 |
| 20260506092507 | 51 | 28 | 0.9 | 4.3 | 0.00 | 0.00 | 0.00 | 85 | 1012.2 |
| 20260506092010 | 51 | 103 | 0.9 | 4.3 | 0.00 | 0.00 | 0.00 | 85 | 1012.2 |
| 20260506091508 | 51 | 82 | 0.9 | 4.3 | 0.00 | 0.00 | 0.00 | 85 | 1012.2 |
| 20260506091010 | 51 | 126 | 0.9 | 4.3 | 0.00 | 0.00 | 0.00 | 85 | 1012.2 |
| 20260506090507 | 51 | 92 | 1.7 | 4.3 | 0.00 | 0.00 | 0.00 | 86 | 1012.2 |
| 20260506090008 | 51 | 105 | 0.9 | 5.2 | 0.00 | 0.00 | 0.00 | 85 | 1012.1 |
| 20260506085505 | 51 | 51 | 1.7 | 5.2 | 0.00 | 0.00 | 0.00 | 84 | 1012.0 |
| 20260506085004 | 51 | 123 | 0.9 | 5.2 | 0.00 | 0.00 | 0.00 | 84 | 1012.1 |
| 20260506084516 | 51 | 60 | 0.9 | 5.2 | 0.00 | 0.00 | 0.00 | 83 | 1012.1 |
| 20260506084003 | 52 | 127 | 1.7 | 6.1 | 0.00 | 0.00 | 0.00 | 82 | 1012.0 |
| 20260506083504 | 52 | 80 | 1.7 | 6.1 | 0.00 | 0.00 | 0.00 | 81 | 1012.1 |
| 20260506083012 | 52 | 138 | 1.7 | 7.0 | 0.00 | 0.00 | 0.00 | 81 | 1012.0 |
| 20260506082502 | 53 | 79 | 1.7 | 7.0 | 0.00 | 0.00 | 0.00 | 80 | 1012.0 |
| 20260506082006 | 53 | 55 | 1.7 | 5.2 | 0.00 | 0.00 | 0.00 | 80 | 1012.0 |
| 20260506081519 | 52 | 49 | 1.7 | 4.3 | 0.00 | 0.00 | 0.00 | 80 | 1012.0 |
| 20260506081008 | 52 | 17 | 0.9 | 7.8 | 0.00 | 0.00 | 0.00 | 81 | 1011.9 |
| 20260506080503 | 52 | 283 | 1.7 | 7.8 | 0.00 | 0.00 | 0.00 | 81 | 1011.9 |
| 20260506073503 | 50 | 328 | 0.9 | 2.6 | 0.00 | 0.00 | 0.00 | 86 | 1011.9 |
| 20260506073010 | 49 | 24 | 0.9 | 2.6 | 0.00 | 0.00 | 0.00 | 86 | 1011.8 |
| 20260506072508 | 49 | 343 | 0.0 | 3.5 | 0.00 | 0.00 | 0.00 | 86 | 1011.8 |
| 20260506072005 | 49 | 360 | 0.9 | 3.5 | 0.00 | 0.00 | 0.00 | 86 | 1011.9 |
| 20260506071516 | 49 | 334 | 0.9 | 3.5 | 0.00 | 0.00 | 0.00 | 86 | 1011.8 |
| 20260506071005 | 49 | 314 | 0.9 | 2.6 | 0.00 | 0.00 | 0.00 | 86 | 1011.8 |
| 20260506070505 | 49 | 325 | 0.9 | 5.2 | 0.00 | 0.00 | 0.00 | 86 | 1011.8 |
| 20260506062503 | 48 | 322 | 1.7 | 4.3 | 0.00 | 0.00 | 0.00 | 85 | 1011.6 |
| 20260506062005 | 48 | 276 | 1.7 | 6.1 | 0.00 | 0.00 | 0.00 | 85 | 1011.6 |
| 20260506061510 | 48 | 5 | 1.7 | 7.0 | 0.00 | 0.00 | 0.00 | 85 | 1011.5 |
| 20260506061008 | 48 | 337 | 1.7 | 7.0 | 0.00 | 0.00 | 0.00 | 86 | 1011.5 |
| 20260506060507 | 48 | 308 | 2.6 | 4.3 | 0.00 | 0.00 | 0.00 | 87 | 1011.5 |
| 20260506051004 | 47 | 274 | 0.9 | 3.5 | 0.00 | 0.00 | 0.00 | 86 | 1011.4 |
| 20260506050506 | 47 | 312 | 0.9 | 4.3 | 0.00 | 0.00 | 0.00 | 86 | 1011.4 |
| 20260506045006 | 47 | 304 | 0.9 | 4.3 | 0.00 | 0.00 | 0.00 | 86 | 1011.4 |
| 20260506044524 | 47 | 337 | 1.7 | 4.3 | 0.00 | 0.00 | 0.00 | 86 | 1011.4 |
| 20260506044013 | 47 | 335 | 1.7 | 3.5 | 0.00 | 0.00 | 0.00 | 86 | 1011.5 |
| 20260506043510 | 47 | 309 | 0.9 | 5.2 | 0.00 | 0.00 | 0.00 | 86 | 1011.4 |
| 20260506043020 | 47 | 297 | 1.7 | 4.3 | 0.00 | 0.00 | 0.00 | 85 | 1011.4 |
| 20260506042508 | 47 | 311 | 0.9 | 4.3 | 0.00 | 0.00 | 0.00 | 85 | 1011.4 |
| 20260506042019 | 47 | 341 | 0.9 | 1.7 | 0.00 | 0.00 | 0.00 | 85 | 1011.4 |
| 20260506041524 | 47 | 321 | 0.9 | 4.3 | 0.00 | 0.00 | 0.00 | 85 | 1011.4 |
| 20260506041007 | 47 | 338 | 0.9 | 4.3 | 0.00 | 0.00 | 0.00 | 85 | 1011.4 |
| 20260506040515 | 47 | 337 | 0.9 | 3.5 | 0.00 | 0.00 | 0.00 | 85 | 1011.4 |
| 20260506040030 | 48 | 329 | 1.7 | 3.5 | 0.00 | 0.00 | 0.00 | 85 | 1011.5 |
| 20260506035503 | 48 | 322 | 0.9 | 2.6 | 0.00 | 0.00 | 0.00 | 85 | 1011.5 |
| 20260506035006 | 48 | 343 | 0.9 | 3.5 | 0.00 | 0.00 | 0.00 | 85 | 1011.5 |
| 20260506034518 | 48 | 348 | 1.7 | 7.0 | 0.00 | 0.00 | 0.00 | 85 | 1011.6 |
| 20260506034008 | 48 | 326 | 1.7 | 7.0 | 0.00 | 0.00 | 0.00 | 85 | 1011.6 |
| 20260506033507 | 48 | 325 | 1.7 | 7.0 | 0.00 | 0.00 | 0.00 | 85 | 1011.6 |
| 20260506033029 | 48 | 306 | 2.6 | 4.3 | 0.00 | 0.00 | 0.00 | 85 | 1011.7 |
| 20260506032508 | 48 | 30 | 0.9 | 4.3 | 0.00 | 0.00 | 0.00 | 85 | 1011.7 |
| 20260506032007 | 48 | 40 | 1.7 | 7.8 | 0.00 | 0.00 | 0.00 | 85 | 1011.8 |
| 20260506031526 | 48 | 351 | 2.6 | 7.8 | 0.00 | 0.00 | 0.00 | 84 | 1011.9 |
| 20260506031009 | 48 | 298 | 1.7 | 3.5 | 0.00 | 0.00 | 0.00 | 84 | 1011.9 |
| 20260506030513 | 48 | 340 | 2.6 | 3.5 | 0.00 | 0.00 | 0.00 | 84 | 1012.0 |
| 20260506030026 | 48 | 317 | 1.7 | 4.3 | 0.00 | 0.00 | 0.00 | 84 | 1012.0 |
| 20260506025508 | 48 | 319 | 1.7 | 5.2 | 0.00 | 0.00 | 0.00 | 84 | 1011.9 |
| 20260506025010 | 48 | 310 | 1.7 | 5.2 | 0.00 | 0.00 | 0.00 | 84 | 1012.1 |
| 20260506024520 | 48 | 314 | 0.9 | 3.5 | 0.00 | 0.00 | 0.00 | 84 | 1012.1 |
| 20260506024004 | 48 | 304 | 0.9 | 3.5 | 0.00 | 0.00 | 0.00 | 85 | 1012.1 |
| 20260506023505 | 48 | 291 | 1.7 | 5.2 | 0.00 | 0.00 | 0.00 | 85 | 1012.1 |
| 20260506023021 | 48 | 308 | 0.9 | 5.2 | 0.00 | 0.00 | 0.00 | 85 | 1012.1 |
| 20260506022508 | 48 | 295 | 1.7 | 3.5 | 0.00 | 0.00 | 0.00 | 85 | 1012.1 |
| 20260506022009 | 48 | 311 | 0.9 | 7.0 | 0.00 | 0.00 | 0.00 | 85 | 1012.0 |
| 20260506021526 | 48 | 295 | 0.9 | 7.0 | 0.00 | 0.00 | 0.00 | 85 | 1012.0 |
| 20260506021008 | 48 | 300 | 2.6 | 6.1 | 0.00 | 0.00 | 0.00 | 85 | 1012.0 |
| 20260506020505 | 49 | 360 | 1.7 | 6.1 | 0.00 | 0.00 | 0.00 | 85 | 1012.0 |
| 20260506020013 | 49 | 315 | 1.7 | 5.2 | 0.00 | 0.00 | 0.00 | 85 | 1012.0 |
| 20260506015504 | 49 | 327 | 1.7 | 6.1 | 0.00 | 0.00 | 0.00 | 85 | 1012.0 |
| 20260506015005 | 49 | 360 | 1.7 | 6.1 | 0.00 | 0.00 | 0.00 | 85 | 1012.1 |
| 20260506014516 | 49 | 292 | 1.7 | 6.1 | 0.00 | 0.00 | 0.00 | 85 | 1012.1 |
| 20260506014003 | 49 | 321 | 1.7 | 4.3 | 0.00 | 0.00 | 0.00 | 85 | 1012.1 |
| 20260506013503 | 49 | 314 | 1.7 | 4.3 | 0.00 | 0.00 | 0.00 | 85 | 1012.2 |
| 20260506013026 | 49 | 342 | 0.9 | 3.5 | 0.00 | 0.00 | 0.00 | 85 | 1012.3 |
| 20260506012506 | 49 | 316 | 1.7 | 4.3 | 0.00 | 0.00 | 0.00 | 85 | 1012.3 |
| 20260506012008 | 49 | 5 | 1.7 | 4.3 | 0.00 | 0.00 | 0.00 | 85 | 1012.3 |
| 20260506011523 | 49 | 30 | 1.7 | 4.3 | 0.00 | 0.00 | 0.00 | 85 | 1012.4 |
| 20260506011004 | 49 | 317 | 1.7 | 4.3 | 0.00 | 0.00 | 0.00 | 85 | 1012.3 |
| 20260506010502 | 49 | 346 | 1.7 | 3.5 | 0.00 | 0.00 | 0.00 | 85 | 1012.3 |
| 20260506010007 | 49 | 303 | 0.9 | 3.5 | 0.00 | 0.00 | 0.00 | 85 | 1012.3 |
| 20260506005502 | 49 | 312 | 1.7 | 5.2 | 0.00 | 0.00 | 0.00 | 85 | 1012.4 |
| 20260506005005 | 49 | 360 | 1.7 | 5.2 | 0.00 | 0.00 | 0.00 | 85 | 1012.4 |
| 20260506004518 | 49 | 26 | 1.7 | 4.3 | 0.00 | 0.00 | 0.00 | 85 | 1012.4 |
| 20260506004003 | 49 | 302 | 1.7 | 5.2 | 0.00 | 0.00 | 0.00 | 85 | 1012.5 |
| 20260506003504 | 49 | 302 | 2.6 | 5.2 | 0.00 | 0.00 | 0.00 | 86 | 1012.5 |
| 20260506003013 | 49 | 306 | 1.7 | 4.3 | 0.00 | 0.00 | 0.00 | 86 | 1012.6 |
| 20260506002506 | 49 | 320 | 0.9 | 4.3 | 0.00 | 0.00 | 0.00 | 86 | 1012.5 |
| 20260506002009 | 49 | 331 | 1.7 | 4.3 | 0.00 | 0.00 | 0.00 | 86 | 1012.5 |
| 20260506001512 | 49 | 350 | 0.9 | 3.5 | 0.00 | 0.00 | 0.00 | 86 | 1012.6 |
| 20260506001004 | 49 | 311 | 0.9 | 4.3 | 0.00 | 0.00 | 0.00 | 86 | 1012.7 |
| 20260506000507 | 49 | 327 | 0.9 | 4.3 | 0.00 | 0.00 | 0.00 | 86 | 1012.7 |
| 20260506000014 | 49 | 301 | 0.9 | 3.5 | 0.00 | 0.00 | 0.00 | 86 | 1012.7 |
| 20260505235506 | 49 | 319 | 1.7 | 3.5 | 0.00 | 0.00 | 0.00 | 86 | 1012.8 |
| 20260505235004 | 49 | 311 | 0.9 | 3.5 | 0.00 | 0.00 | 0.00 | 86 | 1012.8 |
| 20260505234516 | 49 | 304 | 0.9 | 3.5 | 0.00 | 0.00 | 0.00 | 86 | 1012.9 |
| 20260505234002 | 49 | 312 | 1.7 | 3.5 | 0.00 | 0.00 | 0.00 | 85 | 1012.8 |
| 20260505233506 | 49 | 311 | 0.9 | 2.6 | 0.00 | 0.00 | 0.00 | 85 | 1012.9 |
| 20260505233015 | 49 | 327 | 0.9 | 3.5 | 0.00 | 0.00 | 0.00 | 85 | 1013.0 |
| 20260505232503 | 49 | 343 | 0.9 | 3.5 | 0.00 | 0.00 | 0.00 | 85 | 1013.0 |
| 20260505232003 | 49 | 335 | 0.9 | 2.6 | 0.00 | 0.00 | 0.00 | 85 | 1013.0 |
| 20260505231520 | 49 | 338 | 0.9 | 4.3 | 0.00 | 0.00 | 0.00 | 85 | 1013.1 |
| 20260505231007 | 49 | 360 | 1.7 | 4.3 | 0.00 | 0.00 | 0.00 | 85 | 1013.1 |
| 20260505230502 | 49 | 352 | 0.9 | 2.6 | 0.00 | 0.00 | 0.00 | 85 | 1013.2 |
| 20260505230016 | 49 | 324 | 0.9 | 3.5 | 0.00 | 0.00 | 0.00 | 84 | 1013.2 |
| 20260505225507 | 49 | 320 | 0.9 | 3.5 | 0.00 | 0.00 | 0.00 | 84 | 1013.2 |
| 20260505225010 | 49 | 312 | 0.9 | 4.3 | 0.00 | 0.00 | 0.00 | 84 | 1013.2 |
| 20260505224512 | 49 | 352 | 0.9 | 4.3 | 0.00 | 0.00 | 0.00 | 84 | 1013.3 |
| 20260505224007 | 49 | 279 | 0.9 | 3.5 | 0.00 | 0.00 | 0.00 | 84 | 1013.3 |
| 20260505223505 | 49 | 325 | 0.0 | 2.6 | 0.00 | 0.00 | 0.00 | 84 | 1013.3 |
| 20260505223010 | 49 | 346 | 0.9 | 3.5 | 0.00 | 0.00 | 0.00 | 83 | 1013.3 |
| 20260505222502 | 49 | 312 | 0.9 | 3.5 | 0.00 | 0.00 | 0.00 | 83 | 1013.2 |
| 20260505222006 | 50 | 303 | 0.9 | 3.5 | 0.00 | 0.00 | 0.00 | 83 | 1013.2 |
| 20260505221518 | 50 | 11 | 0.9 | 3.5 | 0.00 | 0.00 | 0.00 | 82 | 1013.3 |
| 20260505221002 | 50 | 329 | 0.9 | 3.5 | 0.00 | 0.00 | 0.00 | 82 | 1013.2 |
| 20260505220505 | 50 | 316 | 1.7 | 4.3 | 0.00 | 0.00 | 0.00 | 82 | 1013.2 |
| 20260505220035 | 50 | 336 | 1.7 | 4.3 | 0.00 | 0.00 | 0.00 | 81 | 1013.2 |
| 20260505215505 | 50 | 5 | 0.9 | 4.3 | 0.00 | 0.00 | 0.00 | 80 | 1013.3 |
| 20260505215009 | 50 | 53 | 1.7 | 4.3 | 0.00 | 0.00 | 0.00 | 80 | 1013.3 |
| 20260505214536 | 50 | 337 | 0.9 | 3.5 | 0.00 | 0.00 | 0.00 | 80 | 1013.3 |
| 20260505214012 | 50 | 336 | 0.0 | 4.3 | 0.00 | 0.00 | 0.00 | 80 | 1013.3 |
| 20260505213504 | 50 | 18 | 0.9 | 4.3 | 0.00 | 0.00 | 0.00 | 80 | 1013.3 |
| 20260505213033 | 50 | 27 | 0.9 | 2.6 | 0.00 | 0.00 | 0.00 | 80 | 1013.3 |
| 20260505212504 | 50 | 311 | 0.9 | 4.3 | 0.00 | 0.00 | 0.00 | 80 | 1013.3 |
| 20260505212003 | 49 | 333 | 1.7 | 4.3 | 0.00 | 0.00 | 0.00 | 80 | 1013.3 |
| 20260505211516 | 49 | 344 | 1.7 | 3.5 | 0.00 | 0.00 | 0.00 | 80 | 1013.3 |
| 20260505211007 | 49 | 360 | 0.9 | 3.5 | 0.00 | 0.00 | 0.00 | 81 | 1013.3 |
| 20260505210503 | 49 | 327 | 0.9 | 3.5 | 0.00 | 0.00 | 0.00 | 81 | 1013.3 |
| 20260505210016 | 49 | 316 | 0.9 | 2.6 | 0.00 | 0.00 | 0.00 | 82 | 1013.3 |
| 20260505205515 | 49 | 308 | 0.9 | 3.5 | 0.00 | 0.00 | 0.00 | 82 | 1013.3 |
| 20260505205013 | 49 | 29 | 0.9 | 4.3 | 0.00 | 0.00 | 0.00 | 82 | 1013.4 |
| 20260505204531 | 50 | 327 | 1.7 | 4.3 | 0.00 | 0.00 | 0.00 | 82 | 1013.4 |
| 20260505204003 | 50 | 317 | 0.9 | 3.5 | 0.00 | 0.00 | 0.00 | 83 | 1013.4 |
| 20260505203507 | 50 | 338 | 0.9 | 4.3 | 0.00 | 0.00 | 0.00 | 83 | 1013.4 |
| 20260505203025 | 50 | 340 | 0.9 | 4.3 | 0.00 | 0.00 | 0.00 | 83 | 1013.4 |
| 20260505202503 | 50 | 334 | 0.9 | 5.2 | 0.00 | 0.00 | 0.00 | 83 | 1013.4 |
| 20260505202009 | 50 | 348 | 1.7 | 5.2 | 0.00 | 0.00 | 0.00 | 83 | 1013.3 |
| 20260505201541 | 50 | 360 | 0.9 | 3.5 | 0.00 | 0.00 | 0.00 | 82 | 1013.3 |
| 20260505201003 | 50 | 340 | 1.7 | 4.3 | 0.00 | 0.00 | 0.00 | 82 | 1013.4 |
| 20260505200506 | 50 | 337 | 1.7 | 4.3 | 0.00 | 0.00 | 0.00 | 82 | 1013.3 |
| 20260505200014 | 50 | 15 | 0.9 | 3.5 | 0.00 | 0.00 | 0.00 | 81 | 1013.3 |
| 20260505195503 | 50 | 338 | 1.7 | 4.3 | 0.00 | 0.00 | 0.00 | 82 | 1013.2 |
| 20260505195005 | 50 | 5 | 1.7 | 4.3 | 0.00 | 0.00 | 0.00 | 81 | 1013.2 |
| 20260505194520 | 51 | 332 | 1.7 | 4.3 | 0.00 | 0.00 | 0.00 | 81 | 1013.1 |
| 20260505194016 | 51 | 346 | 1.7 | 4.3 | 0.00 | 0.00 | 0.00 | 81 | 1013.1 |
| 20260505193507 | 51 | 352 | 1.7 | 5.2 | 0.00 | 0.00 | 0.00 | 80 | 1013.0 |
| 20260505193035 | 51 | 329 | 1.7 | 5.2 | 0.00 | 0.00 | 0.00 | 80 | 1013.0 |
| 20260505192507 | 51 | 335 | 2.6 | 5.2 | 0.00 | 0.00 | 0.00 | 81 | 1013.0 |
| 20260505192010 | 51 | 302 | 0.9 | 2.6 | 0.00 | 0.00 | 0.00 | 80 | 1012.9 |
| 20260505191526 | 51 | 84 | 0.9 | 4.3 | 0.00 | 0.00 | 0.00 | 80 | 1012.9 |
| 20260505191006 | 51 | 313 | 0.9 | 5.2 | 0.00 | 0.00 | 0.00 | 80 | 1012.9 |
| 20260505190510 | 51 | 21 | 1.7 | 7.0 | 0.00 | 0.00 | 0.00 | 80 | 1012.9 |
| 20260505190032 | 52 | 294 | 1.7 | 4.3 | 0.00 | 0.00 | 0.00 | 80 | 1012.9 |
| 20260505185506 | 52 | 352 | 0.0 | 7.0 | 0.00 | 0.00 | 0.00 | 79 | 1012.8 |
| 20260505185006 | 52 | 15 | 0.9 | 7.0 | 0.00 | 0.00 | 0.00 | 79 | 1012.9 |
| 20260505184524 | 52 | 360 | 1.7 | 4.3 | 0.00 | 0.00 | 0.00 | 78 | 1012.8 |
| 20260505184007 | 52 | 326 | 0.9 | 5.2 | 0.00 | 0.00 | 0.00 | 79 | 1012.8 |
| 20260505183507 | 52 | 68 | 0.9 | 5.2 | 0.00 | 0.00 | 0.00 | 79 | 1012.8 |
| 20260505183039 | 52 | 352 | 0.9 | 3.5 | 0.00 | 0.00 | 0.00 | 79 | 1012.8 |
| 20260505182505 | 52 | 332 | 0.0 | 3.5 | 0.00 | 0.00 | 0.00 | 78 | 1012.8 |
| 20260505182010 | 52 | 342 | 0.9 | 4.3 | 0.00 | 0.00 | 0.00 | 78 | 1012.7 |
| 20260505181522 | 52 | 352 | 1.7 | 7.0 | 0.00 | 0.00 | 0.00 | 78 | 1012.9 |
| 20260505181011 | 52 | 44 | 1.7 | 7.8 | 0.00 | 0.00 | 0.00 | 78 | 1012.9 |
| 20260505180511 | 52 | 330 | 1.7 | 7.8 | 0.00 | 0.00 | 0.00 | 78 | 1012.9 |
| 20260505180031 | 52 | 85 | 0.9 | 7.0 | 0.00 | 0.00 | 0.00 | 77 | 1012.9 |
| 20260505175507 | 52 | 140 | 0.9 | 7.0 | 0.00 | 0.00 | 0.00 | 77 | 1012.8 |
| 20260505175013 | 52 | 61 | 1.7 | 4.3 | 0.00 | 0.00 | 0.00 | 77 | 1012.8 |
| 20260505174536 | 53 | 61 | 0.9 | 5.2 | 0.00 | 0.00 | 0.00 | 77 | 1012.8 |
| 20260505174007 | 53 | 15 | 1.7 | 4.3 | 0.00 | 0.00 | 0.00 | 76 | 1012.9 |
| 20260505173503 | 53 | 299 | 1.7 | 3.5 | 0.00 | 0.00 | 0.00 | 76 | 1012.8 |
| 20260505173011 | 53 | 31 | 1.7 | 7.0 | 0.00 | 0.00 | 0.00 | 75 | 1012.9 |
| 20260505172503 | 53 | 55 | 1.7 | 7.0 | 0.00 | 0.00 | 0.00 | 75 | 1012.9 |
| 20260505172000 | 54 | 82 | 2.6 | 7.8 | 0.00 | 0.00 | 0.00 | 73 | 1012.9 |
| 20260505171506 | 54 | 63 | 1.7 | 7.8 | 0.00 | 0.00 | 0.00 | 72 | 1012.9 |
| 20260505171002 | 55 | 100 | 1.7 | 6.1 | 0.00 | 0.00 | 0.00 | 71 | 1013.0 |
| 20260505170501 | 55 | 36 | 1.7 | 6.1 | 0.00 | 0.00 | 0.00 | 71 | 1012.9 |
| 20260505170011 | 56 | 5 | 1.7 | 5.2 | 0.00 | 0.00 | 0.00 | 70 | 1012.9 |
| 20260505165502 | 56 | 128 | 1.7 | 7.0 | 0.00 | 0.00 | 0.00 | 70 | 1012.9 |
| 20260505165002 | 56 | 61 | 1.7 | 7.0 | 0.00 | 0.00 | 0.00 | 70 | 1012.9 |
| 20260505164502 | 56 | 80 | 0.9 | 5.2 | 0.00 | 0.00 | 0.00 | 69 | 1012.9 |
| 20260505164004 | 55 | 11 | 0.9 | 7.0 | 0.00 | 0.00 | 0.00 | 69 | 1012.9 |
| 20260505163507 | 55 | 104 | 1.7 | 7.0 | 0.00 | 0.00 | 0.00 | 67 | 1012.9 |
| 20260505163022 | 56 | 55 | 2.6 | 7.0 | 0.00 | 0.00 | 0.00 | 69 | 1012.9 |
| 20260505162503 | 56 | 33 | 0.9 | 7.0 | 0.00 | 0.00 | 0.00 | 69 | 1012.8 |
| 20260505162006 | 56 | 101 | 1.7 | 7.0 | 0.00 | 0.00 | 0.00 | 69 | 1012.8 |
| 20260505161516 | 56 | 42 | 2.6 | 6.1 | 0.00 | 0.00 | 0.00 | 68 | 1012.8 |
| 20260505161003 | 56 | 10 | 0.9 | 6.1 | 0.00 | 0.00 | 0.00 | 69 | 1012.8 |
| 20260505160504 | 56 | 32 | 2.6 | 4.3 | 0.00 | 0.00 | 0.00 | 70 | 1012.8 |
| 20260505153008 | 56 | 37 | 1.7 | 8.7 | 0.00 | 0.00 | 0.00 | 69 | 1012.9 |
| 20260505152505 | 56 | 126 | 1.7 | 7.8 | 0.00 | 0.00 | 0.00 | 68 | 1013.0 |
| 20260505152011 | 56 | 112 | 2.6 | 7.0 | 0.00 | 0.00 | 0.00 | 69 | 1013.0 |
| 20260505151504 | 56 | 53 | 1.7 | 7.0 | 0.00 | 0.00 | 0.00 | 69 | 1013.0 |
| 20260505151007 | 56 | 93 | 2.6 | 7.8 | 0.00 | 0.00 | 0.00 | 70 | 1013.0 |
| 20260505150504 | 55 | 132 | 1.7 | 8.7 | 0.00 | 0.00 | 0.00 | 73 | 1013.0 |
| 20260505140507 | 57 | 119 | 2.6 | 7.0 | 0.00 | 0.00 | 0.00 | 68 | 1013.2 |